Regional Weather Roundup
Issued by NWS

Home | Current Version | Previous Version | Graphics & Text | Print | Product List | Glossary On
Versions: 1 2 3 4 5 6 7 8 9 10 11 12 13 14 15 16 17 18 19 20 21 22 23 24 25 26 27 28 29 30 31 32 33 34 35 36 37 38 39 40 41 42 43 44 45 46 47 48 49 50
000
ASUS45 KABQ 211101
RWRNM
NEW MEXICO REGIONAL WEATHER ROUNDUP
NATIONAL WEATHER SERVICE ALBUQUERQUE NM
500 AM MDT THU SEP 21 2017

NOTE: "FAIR" MEANS FEW OR NO CLOUDS BELOW 12,000 FEET AGL WITH NO
       SIGNIFICANT WEATHER OR OBSTRUCTIONS TO VISION.

      THIS PRODUCT IS RELEASED AS TWO VERSIONS.  ONE VERSION NEAR
      THE TOP OF THE HOUR CONTAINING PRELIMINARY DATA FROM ALBUQUERQUE
      AND OTHER STATIONS.  A FINAL VERSION WITH ADDITIONAL DATA IS
      ISSUED ABOUT 10 MINUTES AFTER THE HOUR.

NMZ501-503-504-510>518-211200-
NORTHWEST PLATEAU/NORTHCENTRAL MOUNTAINS

CITY           SKY/WX    TMP DP  RH WIND       PRES   REMARKS
FARMINGTON     FAIR      49  30  48 N8        29.99R
LOS ALAMOS     FAIR      58  31  34 S7        30.13S
SANTA FE       FAIR      48  29  47 N5        30.07S
TAOS           FAIR      39  21  48 CALM      30.14S
ANGEL FIRE     FAIR      35  27  71 SW5       30.18F WCI  31

$$
NMZ402-403-502-505>509-211200-
WESTCENTRAL MOUNTAINS/SOUTHWEST MOUNTAINS

CITY           SKY/WX    TMP DP  RH WIND       PRES   REMARKS
GALLUP         FAIR      54  31  41 S7        30.07F
GRANTS         FAIR      48  34  57 CALM      30.11S
SILVER CITY    MOCLDY    54  43  67 N8        30.07S

$$
NMZ407-409-411-412-211200-
SOUTHERN DESERTS

CITY           SKY/WX    TMP DP  RH WIND       PRES   REMARKS
DEMING         FAIR      60  45  57 CALM      30.01S
LAS CRUCES     FAIR      69  40  35 W6        30.01R
ALAMOGORDO     FAIR      64  41  42 S7        29.97S
T OR C         FAIR      64  38  38 W6        30.00R

$$
NMZ519>523-211200-
CENTRAL VALLEYS/CENTRAL HIGHLANDS

CITY           SKY/WX    TMP DP  RH WIND       PRES   REMARKS
ALBUQUERQUE    FAIR      62  33  33 SE3       30.03S
CLINES CORNERS FAIR      53  31  42 W15       30.12R
BELEN          FAIR      57  32  38 CALM      30.02S
SOCORRO        FAIR      57  31  36 SW7       30.00S

$$
NMZ524>526-539-540-211200-
SOUTHCENTRAL MOUNTAINS

CITY           SKY/WX    TMP DP  RH WIND       PRES   REMARKS
RUIDOSO        NOT AVBL

$$
NMZ527>531-211200-
NORTHEAST HIGHLANDS/NORTHEAST PLAINS

CITY           SKY/WX    TMP DP  RH WIND       PRES   REMARKS
LAS VEGAS      FAIR      51  32  48 S12       30.07S
RATON          FAIR      42  35  76 E6        30.01F
CLAYTON        FAIR      49  40  71 S8        29.93F

$$
NMZ532>537-211200-
EASTCENTRAL PLAINS

CITY           SKY/WX    TMP DP  RH WIND       PRES   REMARKS
SANTA ROSA     FAIR      65  37  35 W8        29.95S
TUCUMCARI      FAIR      60  44  55 W3        29.88F
CANNON AFB     NOT AVBL
CLOVIS AIRPORT FAIR      58  46  64 W12       29.94F

$$
NMZ028-029-538-211200-
SOUTHEAST PLAINS

CITY           SKY/WX    TMP DP  RH WIND       PRES   REMARKS
ROSWELL        FAIR      63  41  44 SW5       29.92S
ARTESIA        FAIR      66  41  39 CALM      29.92S
CARLSBAD       FAIR      70  48  45 W10       29.89S
HOBBS          FAIR      64  55  72 SW8       29.95R


$$




USA.gov is the U.S. government's official web portal to all federal, state and local government web resources and services.